Flag for U.S.A. Weather past 2 weeks in Shreveport, Louisiana, U.S.A.

Now
52 °F

Fog.


Feels Like: 49 °F
Forecast: 46 / 64 °F
Wind: 9 mph from Southeast

Location: Shreveport Regional Airport

Current Time: Dec 22, 2014 at 8:29:07 AM

Latest Report: Dec 22, 2014 at 7:56 AM


Visibility: 5 mi

Pressure: 29.72 "Hg

Humidity: 93%

Dew point: 50 °F

Location of ShreveportLocation

Historic Weather in Shreveport — Graph

°F

Shreveport temperature yesterday

Maximum temperature yesterday: 59 °F (at 2:56 PM)
Minimum temperature yesterday: 34 °F (at 3:56 AM)
Average temperature yesterday: 46 °F

Past Weeks' High & Low Weather Summary

 TemperatureHumidityPressure
High74 °F (Dec 15, 12:56 PM)100% (Dec 9, 6:56 AM)30.43 "Hg (Dec 9, 6:56 AM)
Low34 °F (Dec 21, 3:56 AM)25% (Dec 15, 2:56 PM)29.73 "Hg (Dec 22, 5:56 AM)
Average50 °F80%30.18 "Hg
* Reported Dec 7 6:56 AM — Dec 22 6:56 AM, Shreveport, Weather by CustomWeather, © 2014

Note: Actual official high and low records may vary slightly from our data, if they occured in-between our weather recording intervals... More about our weather records

Advertising

Shreveport weather history for previous 24 hours

 ConditionsComfort  
Time TempWeatherWind HumidityBarometerVisibility
6:56 AM
Dec 22
52 °FLow clouds.7 mph93%29.74 "Hg7 mi
5:56 AM51 °FFog.10 mph92%29.73 "Hg6 mi
4:56 AM50 °FLow clouds.10 mph93%29.74 "Hg8 mi
3:56 AM50 °FLow clouds.10 mph93%29.76 "Hg9 mi
2:56 AM49 °FLow clouds.10 mph97%29.78 "Hg8 mi
1:56 AM49 °FFog.9 mph97%29.80 "Hg6 mi
12:56 AM49 °FLow clouds.7 mph93%29.83 "Hg9 mi
11:56 PM
Dec 21
48 °FLow clouds.3 mph96%29.86 "Hg8 mi
10:56 PM46 °FClear.7 mph96%29.85 "Hg8 mi
9:56 PM48 °FPassing clouds.6 mph89%29.88 "Hg10 mi
8:56 PM50 °FPartly cloudy.6 mph86%29.90 "Hg10 mi
7:56 PM50 °FPassing clouds.7 mph83%29.92 "Hg10 mi
6:56 PM50 °FPassing clouds.8 mph83%29.89 "Hg10 mi
5:56 PM52 °FPassing clouds.6 mph77%29.91 "Hg10 mi
4:56 PM57 °FPartly sunny.3 mph69%29.94 "Hg10 mi
3:56 PM58 °FBroken clouds.6 mph65%29.94 "Hg10 mi
2:56 PM59 °FScattered clouds.6 mph60%29.96 "Hg10 mi
1:56 PM58 °FPartly sunny.5 mph60%29.99 "Hg10 mi
12:56 PM56 °FBroken clouds.5 mph65%30.03 "Hg10 mi
11:56 AM54 °FBroken clouds.6 mph69%30.08 "Hg10 mi
10:56 AM50 °FPartly sunny.5 mph80%30.12 "Hg10 mi
9:56 AM45 °FFog.5 mph86%30.14 "Hg6 mi
8:56 AM42 °FFog.6 mph89%30.15 "Hg6 mi
Weather by CustomWeather, © 2014

See weather overviewHow to use our weather pages